Mackay Airport

Airport
ICAO code: 
YBMK
Summary
ICAO Region: 
APAC
Territory: 
Location: 
Mackay, Queensland
Serving: 
Mackay
Coordinates: 
Aerial View: 
21° 10' 16.054" S, 149° 10' 57.896" E
Metar
Observation
YBMK 240700Z AUTO 07010KT 9999 // NCD 29/20 Q1007
Station
Mackay Mo
Date/Time
2022-01-24 07:00:00
Wind direction
70°
Wind speed
10 kts
Lowest cloud amount
no clouds detected
Temperature
29°C
Dew point
20°C
Humidity
58%
QNH
1007 hPa
Weather condition
n/a

Mackay Airport located in Mackay, Queensland, Australia is a major Australian regional airport that services the city of Mackay, with flights to the cities of Brisbane, Sydney, Melbourne, Gladstone, Rockhampton, Townsville and Cairns.

Climatology

Humid “subtropical” climate (Köppen climate classification Cwa) - characterized by hot, humid summers and cool winters. Winter months are drier than the summer months. Winter rainfall (and sometimes snowfall) is associated with large storms that the westerlies steer from west to east. Most summer rainfall occurs during thunderstorms and the area is subject to tropical revolving storms.

Runways

Designator Length Width Surface Rops
5/23 1344 30 ASP Yes/Yes
14/32 1981 45 ASP Yes/Yes
Airport map: 
Aerial View: 

Accidents and Serious Incidents at or in the vicinity of YBMK

SKYbrary Partners:

Safety knowledge contributed by: